User: anonymous   Login
Location: Unspecified
(0.0000°N, 0.0000°E)
Time: 23:05:50
(UTC+00:00)
Language:

NNS O-2 - Orbit

View from above orbital plane
View from above orbital plane
View from above satellite
View from above satellite

Ground track
Ground track

The orbit data is extracted from the following two-line orbital elements,

1 00965U 64083D   21125.42479873  .00000009  00000-0  51016-7 0  9995
2 00965  90.0241 194.3278 0040091 344.6631  25.8118 13.56754974790308
Epoch (UTC): 05 May 2021 10:11:42
Eccentricity: 0.0040091
inclination: 90.0241°
perigee height: 1018 km
apogee height: 1077 km
right ascension of ascending node: 194.3278°
argument of perigee: 344.6631°
revolutions per day: 13.56754974
mean anomaly at epoch: 25.8118°
orbit number at epoch: 79030

The dashed part of the orbit path shows where the satellite is in the earth's shadow,  

DLR